Regional Weather Roundup
Issued by NWS Sterling, VA

Home | Current Version | Previous Version | Graphics & Text | Print | Product List | Glossary On
Versions: 1 2 3 4 5 6 7 8 9 10 11 12 13 14 15 16 17 18 19 20 21 22 23 24 25 26 27 28 29 30 31 32 33 34 35 36 37 38 39 40 41 42 43 44 45 46 47 48 49 50
000
ASUS41 KLWX 270810
RWRLWX

REGIONAL WEATHER ROUNDUP
NATIONAL WEATHER SERVICE BALTIMORE MD/WASHINGTON DC
400 AM EDT FRI MAR 27 2015

Note: "FAIR" indicates few or no clouds below 12,000 feet
with no significant weather and/or obstructions to visibility.
 TC=TEMPERATURE CELSIUS

 * =Non NWS site. Station does not report precipitation (e.g. rain,
    snow, etc.), thunder, or fog.

DCZ001-MDZ009-015-VAZ040>042-051-053>054-270900-
WASHINGTON METRO

CITY           SKY/WX    TMP DP  RH WIND       PRES   REMARKS
WASHINGTON NAT LGT RAIN  49  43  80 N10       29.81R
DULLES         LGT RAIN  44  41  89 NW9       29.82R FOG
ANDREWS AFB    LGT RAIN  46  45  93 NW13      29.79R
FT BELVOIR     LGT RAIN  46  42  86 NW13      29.82R
QUANTICO       LGT RAIN  47  41  80 N13G25    29.83R
COLLEGE PARK*  CLOUDY    46  43  87 NW8       29.81R
LEESBURG*      RAIN      45  43  93 NW9       29.83R
MANASSAS*      CLOUDY    45  43  93 N5        29.83R
GAITHERSBURG*  CLOUDY    43  37  81 NW7       29.85R

$$

MDZ006>007-011-014-270900-
BALTIMORE METRO

CITY           SKY/WX    TMP DP  RH WIND       PRES   REMARKS
BWI AIRPORT    LGT RAIN  45  43  93 NW7       29.78R FOG
MD SCIENCE CTR   N/A     47  42  83 MISG      29.80R
MARTIN STATE   RAIN      45  43  93 NW3       29.81R
ANNAPOLIS      LGT RAIN  46  42  86 NW9       29.78R

$$

MDZ012-015-019>023-270900-
MARYLAND EASTERN SHORE

CITY           SKY/WX    TMP DP  RH WIND       PRES   REMARKS
OCEAN CITY     CLOUDY    52  48  86 NW15      29.68S
SALISBURY      CLOUDY    49  45  86 N15G23    29.69F
BAY BRIDGE AP* DRIZZLE   43  43 100 N7        29.79R
CAMBRIDGE*     CLOUDY    46  43  87 NW14      29.75R
EASTON*        DRIZZLE   46  46 100 N14G20    29.79S

$$

MDZ017>025-270900-
SOUTHERN MARYLAND

CITY           SKY/WX    TMP DP  RH WIND       PRES   REMARKS
PATUXENT RIVER LGT RAIN  48  41  76 N20       29.75R
ST INIGOES     LGT RAIN  49  41  74 VRB7G17   29.74R
LEONARDTOWN*   CLOUDY    46  43  87 NW8       29.78R

$$

MDZ003>005-270900-
NORTH CENTRAL MARYLAND

CITY           SKY/WX    TMP DP  RH WIND       PRES   REMARKS
FREDERICK*     LGT RAIN  45  37  76 N5        29.83R
HAGERSTOWN APT CLOUDY    43  37  79 NW12      29.80R
WESTMINSTER*   RAIN      43  39  87 N5        29.78R

$$

MDZ501>502-270900-
WESTERN MARYLAND

CITY           SKY/WX    TMP DP  RH WIND       PRES   REMARKS
OAKLAND*       CLOUDY    30 N/A N/A NW9       29.77S HAZE    WCI  22
CUMBERLAND*    CLOUDY    43  32  65 NW9       29.87R

$$

VAZ025>031-270900-
SHENANDOAH VALLEY

CITY           SKY/WX    TMP DP  RH WIND       PRES   REMARKS
WINCHESTER*    RAIN      45  37  76 NW5       29.81S
FRONT ROYAL*   CLOUDY    43  39  87 CALM      29.80F
LURAY*         RAIN      45  41  87 CALM      29.80F
NEW MARKET*    CLOUDY    42  40  93 CALM      29.80F
STAUNTON*      LGT RAIN  43  40  88 NE6       29.81F
WAYNESBORO*    CLOUDY    41  39  93 N7G17     29.79S

$$

WVZ021-048>050-054>055-270900-
EASTERN WEST VIRGINIA PANHANDLE

CITY           SKY/WX    TMP DP  RH WIND       PRES   REMARKS
MARTINSBURG    LGT RAIN  45  39  79 NW5       29.82R
PETERSBURG*    LGT RAIN  43  38  82 CALM      29.81F

$$

VAZ036>039-050-270900-
CENTRAL FOOTHILLS

CITY           SKY/WX    TMP DP  RH WIND       PRES   REMARKS
CHARLOTTESVILL HVY RAIN  45  43  93 N5        29.79R FOG
CULPEPER*      RAIN      45  45 100 N6        29.81S
ORANGE*        RAIN      45  43  93 N8        29.81R
GORDONSVILLE*  CLOUDY    44  43  96 NE6       29.79R
WARRENTON*     RAIN      46  46 100 N7        29.80S

$$

VAZ055>057-270900-
NORTH AND CENTRAL PIEDMONT

CITY           SKY/WX    TMP DP  RH WIND       PRES   REMARKS
FREDERICKSBRG* RAIN      47  46  99 N8        29.81R
STAFFORD*      HVY RAIN  44  32  62 N9        29.86R

$$

NCZ024-NYZ072-PAZ021-071-VAZ022-071-270900-
OTHER REGIONAL OBSERVATIONS

CITY           SKY/WX    TMP DP  RH WIND       PRES   REMARKS
NEW YORK CITY  LGT RAIN  42  40  92 VRB6      29.75R
PHILADELPHIA   LGT RAIN  44  39  82 N14G22    29.76F
PITTSBURGH     CLOUDY    34  32  92 W7        29.84F
ROANOKE        LGT RAIN  45  39  79 NW10      29.80S
RICHMOND       LGT RAIN  50  43  77 N18G28    29.76R
RALEIGH        CLOUDY    63  57  81 SW9       29.66F

$$

ANZ530>537-270900-
MARINE OBSERVATIONS

STATION/POSITION TIME  TEMP    WIND        PRES
                       AIR SEA DIR/SP/G
                 (UTC) (F)     (DEG/KT/KT) (MB)
THOMAS PT LIGHT  0800                        N/A
BALT KEY BRIDGE  0700   46     330/  8/  9 1008.0F
COVE POINT       0700   44     350/ 19/ 21 1007.0R
LEWISETTA        0700                      1006.5R
SOLOMONS ISLAND  0706      44                N/A
PINEY POINT      0706          360/ 16/ 18   N/A

$$



USA.gov is the U.S. government's official web portal to all federal, state and local government web resources and services.